Location: Estes P
(40.3770°N, 105.5210°W)
Time: 19:36:46
(UTC-07:00)

Amateur Radio Satellites - All Passes

Search period start: 16 December 2017 19:06
Search period end: 17 December 2017 19:06
Location: Estes P, 40.3770°N, 105.5210°W

Satellite Date Start Highest point End Downlink Frequencies (MHz)
Time Altitude Azimuth
PCSat 16 Dec 19:07:40 19:12:34 35° 307° (NW) 19:17:32 145.827
CUTE 1.7 + AOD 2 16 Dec 19:17:03 19:20:05 19° 267° (W) 19:23:09 437.475
Oscar 11 16 Dec 19:21:49 19:25:55 46° 73° (ENE) 19:30:03 .
AO-73 16 Dec 19:38:50 19:42:55 72° 259° (WSW) 19:47:03 145.935
DELFI C3 16 Dec 19:41:22 19:43:26 14° 66° (ENE) 19:45:31 145.870
BEESAT 2 16 Dec 19:52:30 19:56:13 40° 116° (ESE) 20:00:01 435.950
FO-29 16 Dec 20:05:31 20:12:02 49° 97° (E) 20:17:46 435.910
XW-2A 16 Dec 20:10:37 20:11:59 12° 268° (W) 20:13:21 145.665 - 145.685
HO-68 16 Dec 20:20:17 20:22:23 11° 273° (W) 20:24:30 435.675
UNISAT 6 16 Dec 20:34:04 20:34:49 10° 90° (E) 20:35:34 437.425
STRAND 1 16 Dec 20:34:38 20:38:59 29° 293° (WNW) 20:43:19 437.568
BEESAT 3 16 Dec 20:45:32 20:48:16 18° 315° (NW) 20:51:00 437.485
ZACube-1 16 Dec 20:45:40 20:47:04 11° 270° (W) 20:48:28 437.345
Max Valier Satellite 16 Dec 20:53:33 20:57:08 65° 76° (ENE) 21:00:47 145.860
RS-15 16 Dec 20:56:07 21:06:11 30° 29° (NNE) 21:15:48 29.354- 29.394
Oscar 11 16 Dec 20:59:50 21:02:17 15° 269° (W) 21:04:44 .
AO-85 16 Dec 21:10:56 21:14:45 66° 120° (ESE) 21:18:49 145.980
DELFI C3 16 Dec 21:13:57 21:17:46 45° 261° (W) 21:21:36 145.870
EO-88 16 Dec 21:15:42 21:19:19 85° 78° (ENE) 21:22:59 145.990 - 145.960
BEESAT 2 16 Dec 21:31:04 21:34:06 20° 314° (NW) 21:37:09 435.950
FALCONSAT 3 16 Dec 21:35:02 21:38:10 26° 165° (SSE) 21:41:17 435.103
LO-87 16 Dec 21:39:37 21:42:03 18° 69° (ENE) 21:44:29 145.935 - 145.965
FO-29 16 Dec 21:51:06 21:56:41 28° 298° (WNW) 22:01:43 435.910
ESTCUBE 1 16 Dec 21:51:26 21:55:02 24° 67° (ENE) 21:58:41 437.505/2401.250
PRISM 16 Dec 22:01:18 22:04:44 25° 96° (E) 22:08:06 437.425
TIGRISAT 16 Dec 22:03:33 22:07:55 82° 283° (WNW) 22:12:22 435.000
UNISAT 6 16 Dec 22:07:34 22:11:54 68° 285° (WNW) 22:16:19 437.425
SO-50 16 Dec 22:49:46 22:53:56 31° 49° (NE) 22:58:07 436.795
AO-85 16 Dec 22:53:30 22:55:39 14° 320° (NW) 22:57:53 145.980
QB50P2 16 Dec 23:04:46 23:07:44 18° 93° (E) 23:10:42 145.880/145.840
DUCHIFAT 1 16 Dec 23:06:40 23:08:32 13° 91° (E) 23:10:23 145.980
RS-15 16 Dec 23:08:58 23:20:51 80° 57° (ENE) 23:32:03 29.354- 29.394
LO-87 16 Dec 23:12:19 23:15:15 25° 264° (W) 23:18:13 145.935 - 145.965
FALCONSAT 3 16 Dec 23:13:25 23:16:51 38° 180° (S) 23:20:17 435.103
VELOX 1 16 Dec 23:13:40 23:17:22 26° 68° (ENE) 23:21:05 145.980
ESTCUBE 1 16 Dec 23:27:40 23:31:40 31° 263° (W) 23:35:43 437.505/2401.250
NANOSAT C BR1 16 Dec 23:33:04 23:36:46 30° 97° (E) 23:40:28 145.865
SPROUT 16 Dec 23:34:03 23:38:15 73° 76° (ENE) 23:42:29 437.525
AIST 2D 16 Dec 23:35:07 23:38:35 53° 285° (WNW) 23:42:01 435.315
PRISM 16 Dec 23:36:35 23:39:53 24° 292° (WNW) 23:43:09 437.425
EO-79 16 Dec 23:49:50 23:53:57 54° 100° (E) 23:58:05 145.935-145.965
DX 1 17 Dec 00:01:57 00:05:03 19° 66° (ENE) 00:08:08 434.975-435.025
POLYITAN 1 17 Dec 00:13:30 00:17:43 80° 286° (WNW) 00:21:57 437.675
SO-50 17 Dec 00:30:13 00:34:21 32° 246° (WSW) 00:38:31 436.795
QB50P2 17 Dec 00:39:45 00:43:36 35° 289° (WNW) 00:47:27 145.880/145.840
DUCHIFAT 1 17 Dec 00:40:24 00:44:27 51° 287° (WNW) 00:48:31 145.980
AO-91 17 Dec 00:41:24 00:43:00 13° 93° (E) 00:44:36 145.960
VELOX 1 17 Dec 00:49:54 00:53:42 28° 264° (W) 00:57:31 145.980
FALCONSAT 3 17 Dec 00:52:28 00:55:32 25° 196° (SSW) 00:58:35 435.103
Oscar 19 17 Dec 00:58:13 01:02:50 32° 96° (E) 01:07:25 437.125/150
50 SAT 17 Dec 01:04:19 01:07:27 77° 258° (WSW) 01:10:37 437.505
NANOSAT C BR1 17 Dec 01:09:03 01:12:17 22° 292° (WNW) 01:15:33 145.865
BUGSAT 1 17 Dec 01:10:27 01:14:30 78° 101° (ESE) 01:18:34 437.445
ITUPSAT 1 17 Dec 01:12:53 01:14:04 11° 60° (ENE) 01:15:15 437.325
UKube-1 17 Dec 01:15:10 01:19:27 73° 75° (ENE) 01:23:46 .
RS-15 17 Dec 01:22:58 01:31:51 27° 259° (WSW) 01:40:28 29.354- 29.394
EO-79 17 Dec 01:27:13 01:29:15 13° 296° (WNW) 01:31:15 145.935-145.965
MOZHAYETS 4 17 Dec 01:33:11 01:36:48 24° 67° (ENE) 01:40:27
DX 1 17 Dec 01:36:51 01:40:56 38° 262° (W) 01:45:02 434.975-435.025
Gurwin Techsat 1B 17 Dec 02:00:39 02:06:00 89° 106° (ESE) 02:11:18 435.225
PCSat 17 Dec 02:12:29 02:17:03 27° 49° (NE) 02:21:35 145.827
BEESAT 17 Dec 02:16:27 02:20:59 48° 72° (ENE) 02:25:33 436.000
AO-91 17 Dec 02:16:40 02:19:38 28° 289° (WNW) 02:22:33 145.960
YUBILEINY 17 Dec 02:20:06 02:28:36 56° 90° (E) 02:37:09 435.215
AO-7 17 Dec 02:32:08 02:39:04 28° 95° (E) 02:45:57 .
Oscar 19 17 Dec 02:37:32 02:42:04 31° 293° (WNW) 02:46:34 437.125/150
ITUPSAT 1 17 Dec 02:46:24 02:51:09 85° 257° (WSW) 02:55:56 437.325
CUBESAT XI-V 17 Dec 03:02:36 03:07:05 49° 72° (ENE) 03:11:36 437.345
KKS-1 17 Dec 03:06:20 03:07:04 10° 61° (ENE) 03:07:48 437.445
MOZHAYETS 4 17 Dec 03:09:43 03:13:46 32° 263° (W) 03:17:52
BEESAT 3 17 Dec 03:23:49 03:27:06 25° 49° (NE) 03:30:19 437.485
M-CUBED/EXP-1 PRIME 17 Dec 03:28:09 03:32:21 42° 103° (ESE) 03:36:16 437.505
Gurwin Techsat 1B 17 Dec 03:43:01 03:45:08 12° 301° (WNW) 03:47:16 435.225
ITAMSAT 1 17 Dec 03:54:59 04:00:11 81° 104° (ESE) 04:05:21 435.822/435.867
PCSat 17 Dec 03:55:28 04:00:38 46° 248° (WSW) 04:05:46 145.827
BEESAT 17 Dec 03:55:56 03:59:00 17° 267° (W) 04:02:05 436.000
DOVE 4 17 Dec 03:56:47 03:59:17 15° 90° (E) 04:01:43 437.250
BEESAT 2 17 Dec 04:10:32 04:13:46 22° 48° (NE) 04:16:57 435.950
YUBILEINY 17 Dec 04:18:10 04:25:47 32° 290° (WNW) 04:33:29 435.215
AO-7 17 Dec 04:24:03 04:32:17 64° 293° (WNW) 04:40:29 .
KKS-1 17 Dec 04:38:29 04:42:57 80° 258° (WSW) 04:47:25 437.445
CUBESAT XI-V 17 Dec 04:41:49 04:44:42 16° 269° (W) 04:47:36 437.345
XW-2B 17 Dec 05:00:19 05:01:05 10° 90° (E) 05:01:52 145.730 - 145.750
BEESAT 3 17 Dec 05:01:13 05:04:35 28° 246° (WSW) 05:07:55 437.485
M-CUBED/EXP-1 PRIME 17 Dec 05:03:12 05:06:20 19° 301° (WNW) 05:09:21 437.505
XW-2F 17 Dec 05:08:53 05:10:42 13° 92° (E) 05:12:30 145.980 - 146.000
STARS 17 Dec 05:13:25 05:17:48 85° 260° (W) 05:22:11 437.465
XW-2C 17 Dec 05:25:50 05:28:56 23° 95° (E) 05:32:00 145.795 - 145.815
DOVE 4 17 Dec 05:33:04 05:37:16 44° 288° (WNW) 05:41:16 437.250
NO-84 17 Dec 05:36:08 05:39:02 83° 139° (SE) 05:42:10 435.350 FM
ITAMSAT 1 17 Dec 05:36:35 05:38:56 13° 301° (WNW) 05:41:17 435.822/435.867
CUTE-I 17 Dec 05:41:13 05:45:51 30° 96° (E) 05:50:28 437.470
AO-85 17 Dec 05:41:26 05:46:08 53° 54° (NE) 05:51:10 145.980
BEESAT 2 17 Dec 05:47:55 05:51:32 33° 245° (WSW) 05:55:06 435.950
HO-68 17 Dec 05:55:46 06:01:03 22° 92° (E) 06:06:18 435.675
LilacSat-2 17 Dec 06:05:20 06:09:13 81° 103° (ESE) 06:13:05 437.200
NUDT-PHONESAT 17 Dec 06:07:31 06:11:10 50° 100° (E) 06:14:47 437.300
STRAND 1 17 Dec 06:10:36 06:15:26 44° 71° (ENE) 06:20:17 437.568
XW-2D 17 Dec 06:15:43 06:19:34 78° 283° (WNW) 06:23:23 145.860 - 145.880
FO-29 17 Dec 06:16:01 06:22:13 27° 61° (ENE) 06:28:23 435.910
KAITUO 1B 17 Dec 06:16:23 06:20:10 71° 101° (E) 06:23:55 145.475/437.950
AO-7 17 Dec 06:19:19 06:23:25 15° 314° (NW) 06:27:32 .
XW-2B 17 Dec 06:31:48 06:35:33 51° 286° (WNW) 06:39:15 145.730 - 145.750
SEEDS 17 Dec 06:32:45 06:35:58 21° 94° (E) 06:39:10 437.485
UWE-3 17 Dec 06:37:44 06:39:56 14° 91° (E) 06:42:09 435.000/436.395/437.385
XW-2F 17 Dec 06:41:22 06:44:58 40° 287° (WNW) 06:48:33 145.980 - 146.000
CUBEBUG 2 17 Dec 06:42:56 06:46:37 27° 96° (E) 06:50:24 437.445
AAUSAT CUBESAT 2 17 Dec 06:44:22 06:45:37 11° 90° (E) 06:46:51 437.432
ZACube-1 17 Dec 06:56:58 06:58:19 11° 90° (E) 06:59:41 437.345
O/OREOS (USA 219) 17 Dec 06:57:44 07:01:25 24° 102° (ESE) 07:05:05 437.305
XW-2C 17 Dec 06:59:56 07:03:01 23° 290° (WNW) 07:06:06 145.795 - 145.815
CUTE 1.7 + AOD 2 17 Dec 07:00:40 07:04:58 76° 102° (ESE) 07:09:14 437.475
NO-84 17 Dec 07:14:58 07:16:43 14° 337° (NNW) 07:18:33 435.350 FM
CUTE-I 17 Dec 07:21:08 07:25:52 34° 292° (WNW) 07:30:34 437.470
AO-85 17 Dec 07:22:42 07:26:17 20° 249° (WSW) 07:29:58 145.980
AO-73 17 Dec 07:27:15 07:30:42 22° 94° (E) 07:34:10 145.935
XW-2A 17 Dec 07:30:08 07:33:20 36° 98° (E) 07:36:30 145.665 - 145.685
HO-68 17 Dec 07:42:12 07:49:18 68° 290° (WNW) 07:56:21 435.675
NUDT-PHONESAT 17 Dec 07:43:22 07:44:32 11° 295° (WNW) 07:45:42 437.300
STRAND 1 17 Dec 07:50:59 07:54:48 21° 266° (W) 07:58:37 437.568
FO-29 17 Dec 07:58:48 08:06:32 70° 258° (WSW) 08:14:22 435.910
SEEDS 17 Dec 08:07:55 08:11:40 31° 290° (WNW) 08:15:23 437.485
UWE-3 17 Dec 08:12:25 08:16:38 52° 286° (WNW) 08:20:58 435.000/436.395/437.385
AAUSAT CUBESAT 2 17 Dec 08:17:20 08:21:24 56° 286° (WNW) 08:25:26 437.432
CUBEBUG 2 17 Dec 08:19:37 08:23:08 25° 291° (WNW) 08:26:43 437.445
ZACube-1 17 Dec 08:30:36 08:34:56 64° 285° (WNW) 08:39:21 437.345
O/OREOS (USA 219) 17 Dec 08:36:34 08:40:39 32° 299° (WNW) 08:44:45 437.305
CUTE 1.7 + AOD 2 17 Dec 08:39:52 08:40:08 10° 298° (WNW) 08:40:24 437.475
Oscar 11 17 Dec 08:45:03 08:49:25 79° 284° (WNW) 08:53:45 .
PRISM 17 Dec 08:50:20 08:53:12 18° 66° (ENE) 08:56:05 437.425
DELFI C3 17 Dec 08:51:29 08:54:31 21° 94° (E) 08:57:31 145.870
TIGRISAT 17 Dec 09:01:30 09:05:46 79° 75° (ENE) 09:10:01 435.000
AO-73 17 Dec 09:03:02 09:06:56 32° 289° (WNW) 09:10:54 145.935
XW-2A 17 Dec 09:04:16 09:05:39 12° 294° (WNW) 09:07:03 145.665 - 145.685
UNISAT 6 17 Dec 09:05:38 09:09:54 84° 258° (WSW) 09:14:11 437.425
ISS 17 Dec 09:28:13 09:30:34 18° 132° (SE) 09:32:56 437.550
HO-68 17 Dec 09:32:42 09:35:43 13° 309° (NW) 09:38:44 435.675
FO-29 17 Dec 09:49:46 09:52:42 12° 276° (W) 09:55:39 435.910
Max Valier Satellite 17 Dec 09:57:08 10:00:52 83° 283° (WNW) 10:04:35 145.860
QB50P2 17 Dec 09:57:46 09:59:54 14° 64° (ENE) 10:02:02 145.880/145.840
AIST 2D 17 Dec 10:08:14 10:11:33 43° 74° (ENE) 10:14:56 435.315
nSIGHT-1 17 Dec 10:10:26 10:13:37 71° 141° (SE) 10:16:49 .
EO-88 17 Dec 10:17:56 10:21:35 67° 284° (WNW) 10:25:11 145.990 - 145.960
PRISM 17 Dec 10:24:22 10:28:11 36° 262° (W) 10:32:02 437.425
NANOSAT C BR1 17 Dec 10:24:54 10:28:03 21° 67° (ENE) 10:31:13 145.865
DELFI C3 17 Dec 10:25:55 10:29:12 26° 290° (WNW) 10:32:29 145.870
NO-84 17 Dec 10:32:36 10:33:59 12° 20° (NNE) 10:35:24 435.350 FM
LO-87 17 Dec 10:39:03 10:41:52 22° 95° (E) 10:44:41 145.935 - 145.965
EO-79 17 Dec 10:41:33 10:45:22 36° 72° (ENE) 10:49:14 145.935-145.965
ISS 17 Dec 11:03:38 11:06:49 47° 328° (NNW) 11:10:00 437.550
POLYITAN 1 17 Dec 11:05:04 11:09:12 69° 74° (ENE) 11:13:22 437.675
ESTCUBE 1 17 Dec 11:19:48 11:24:16 54° 100° (E) 11:28:41 437.505/2401.250
SPROUT 17 Dec 11:21:50 11:23:36 12° 91° (E) 11:25:20 437.525
DUCHIFAT 1 17 Dec 11:31:00 11:35:08 78° 256° (WSW) 11:39:18 145.980
QB50P2 17 Dec 11:31:10 11:35:14 51° 261° (W) 11:39:19 145.880/145.840
AO-91 17 Dec 11:37:21 11:40:14 17° 68° (ENE) 11:42:58 145.960
Gurwin Techsat 1B 17 Dec 11:43:42 11:47:09 18° 62° (ENE) 11:50:37 435.225
nSIGHT-1 17 Dec 11:47:39 11:50:06 20° 339° (NNW) 11:52:34 .
BUGSAT 1 17 Dec 11:59:20 12:03:12 48° 73° (ENE) 12:07:04 437.445
NANOSAT C BR1 17 Dec 11:59:53 12:03:34 30° 263° (W) 12:07:16 145.865
NO-84 17 Dec 12:08:23 12:11:56 45° 38° (NE) 12:15:46 435.350 FM
LO-87 17 Dec 12:12:30 12:15:08 20° 291° (WNW) 12:17:47 145.935 - 145.965
Oscar 19 17 Dec 12:14:27 12:19:16 44° 70° (ENE) 12:24:09 437.125/150
EO-79 17 Dec 12:18:27 12:21:15 17° 267° (W) 12:24:03 145.935-145.965
YUBILEINY 17 Dec 12:31:24 12:38:35 27° 67° (ENE) 12:45:40 435.215
VELOX 1 17 Dec 12:39:24 12:43:44 54° 101° (E) 12:48:00 145.980
ISS 17 Dec 12:42:01 12:43:55 14° 347° (NNW) 12:45:49 437.550
SPROUT 17 Dec 12:55:39 12:59:47 53° 286° (WNW) 13:03:54 437.525
ESTCUBE 1 17 Dec 12:58:00 13:00:35 15° 296° (WNW) 13:03:10 437.505/2401.250
UKube-1 17 Dec 13:04:34 13:06:12 12° 91° (E) 13:07:49 .
AO-91 17 Dec 13:11:44 13:16:25 49° 260° (W) 13:20:39 145.960
Gurwin Techsat 1B 17 Dec 13:21:20 13:26:34 61° 258° (WSW) 13:31:51 435.225
DX 1 17 Dec 13:25:12 13:29:10 34° 98° (E) 13:33:06 434.975-435.025
nSIGHT-1 17 Dec 13:26:12 13:27:16 11° 359° (N) 13:28:20 .
RS-15 17 Dec 13:29:54 13:41:41 56° 111° (ESE) 13:53:25 29.354- 29.394
AO-7 17 Dec 13:30:32 13:38:00 39° 60° (ENE) 13:45:31 .
ITAMSAT 1 17 Dec 13:35:48 13:38:46 15° 61° (ENE) 13:41:42 435.822/435.867
BUGSAT 1 17 Dec 13:37:08 13:38:49 12° 268° (W) 13:40:28 437.445
NO-84 17 Dec 13:46:02 13:49:03 22° 232° (SW) 13:52:13 435.350 FM
50 SAT 17 Dec 13:52:21 13:55:30 89° 90° (E) 13:58:37 437.505
Oscar 19 17 Dec 13:54:54 13:58:46 21° 266° (W) 14:02:41 437.125/150
M-CUBED/EXP-1 PRIME 17 Dec 14:12:08 14:16:21 48° 67° (ENE) 14:20:47 437.505
VELOX 1 17 Dec 14:17:21 14:19:41 14° 297° (WNW) 14:22:01 145.980
BEESAT 17 Dec 14:18:53 14:20:46 12° 90° (E) 14:22:40 436.000
ISS 17 Dec 14:19:59 14:21:29 12° 8° (N) 14:22:59 437.550
YUBILEINY 17 Dec 14:27:21 14:36:03 67° 268° (W) 14:44:40 435.215
UKube-1 17 Dec 14:38:20 14:42:33 57° 287° (WNW) 14:46:45 .
SO-50 17 Dec 14:43:15 14:47:41 88° 296° (WNW) 14:52:13 436.795
ITUPSAT 1 17 Dec 14:47:47 14:51:41 25° 95° (E) 14:55:34 437.325
DOVE 4 17 Dec 15:00:44 15:04:22 20° 66° (ENE) 15:07:55 437.250
CUBESAT XI-V 17 Dec 15:01:21 15:03:24 13° 90° (E) 15:05:26 437.345
DX 1 17 Dec 15:01:53 15:05:06 21° 294° (WNW) 15:08:19 434.975-435.025
nSIGHT-1 17 Dec 15:02:11 15:04:29 18° 19° (NNE) 15:06:45 .
MOZHAYETS 4 17 Dec 15:04:19 15:08:54 59° 101° (E) 15:13:27
ITAMSAT 1 17 Dec 15:12:27 15:17:37 70° 257° (WSW) 15:22:50 435.822/435.867
AO-7 17 Dec 15:22:38 15:30:33 49° 259° (WSW) 15:38:34 .
RS-15 17 Dec 15:42:35 15:54:25 50° 314° (NW) 16:06:09 29.354- 29.394
M-CUBED/EXP-1 PRIME 17 Dec 15:48:09 15:50:58 17° 264° (W) 15:53:52 437.505
BEESAT 17 Dec 15:54:14 15:58:58 67° 286° (WNW) 16:03:41 436.000
ISS 17 Dec 15:55:49 15:58:46 30° 27° (NNE) 16:01:42 437.550
XW-2C 17 Dec 16:08:21 16:09:32 11° 64° (ENE) 16:10:44 145.795 - 145.815
ITUPSAT 1 17 Dec 16:25:14 16:29:31 34° 291° (WNW) 16:33:47 437.325
HO-68 17 Dec 16:25:39 16:29:57 17° 54° (NE) 16:34:15 435.675
SO-50 17 Dec 16:26:38 16:28:50 13° 321° (NW) 16:31:03 436.795
YUBILEINY 17 Dec 16:29:10 16:30:59 11° 288° (WNW) 16:32:48 435.215
KKS-1 17 Dec 16:30:38 16:33:50 19° 94° (E) 16:37:00 437.445
CUBESAT XI-V 17 Dec 16:36:30 16:41:10 63° 286° (WNW) 16:45:47 437.345
DOVE 4 17 Dec 16:36:31 16:41:38 53° 261° (W) 16:46:37 437.250
nSIGHT-1 17 Dec 16:37:50 16:41:03 89° 8° (N) 16:44:14 .
MOZHAYETS 4 17 Dec 16:43:01 16:45:32 15° 297° (WNW) 16:48:04
NUDT-PHONESAT 17 Dec 16:46:17 16:49:04 21° 69° (ENE) 16:51:53 437.300
LilacSat-2 17 Dec 16:46:30 16:49:58 34° 72° (ENE) 16:53:29 437.200
PCSat 17 Dec 16:54:17 16:58:30 24° 107° (ESE) 17:02:45 145.827
KAITUO 1B 17 Dec 16:55:39 16:58:54 28° 71° (ENE) 17:02:10 145.475/437.950
XW-2D 17 Dec 16:56:00 16:59:35 43° 73° (ENE) 17:03:12 145.860 - 145.880
CUTE-I 17 Dec 17:02:18 17:07:25 48° 71° (ENE) 17:12:33 437.470
STARS 17 Dec 17:04:07 17:06:59 17° 93° (E) 17:09:51 437.465
O/OREOS (USA 219) 17 Dec 17:07:21 17:11:39 43° 64° (ENE) 17:15:53 437.305
XW-2B 17 Dec 17:11:50 17:15:34 66° 76° (ENE) 17:19:21 145.730 - 145.750
XW-2F 17 Dec 17:20:47 17:24:33 82° 77° (ENE) 17:28:21 145.980 - 146.000
SEEDS 17 Dec 17:24:41 17:27:00 15° 65° (ENE) 17:29:20 437.485
ISS 17 Dec 17:32:16 17:35:15 33° 224° (SW) 17:38:14 437.550
XW-2C 17 Dec 17:39:33 17:43:13 51° 260° (W) 17:46:57 145.795 - 145.815
CUBEBUG 2 17 Dec 17:41:06 17:44:14 21° 68° (ENE) 17:47:20 437.445
CUTE 1.7 + AOD 2 17 Dec 17:52:24 17:56:28 48° 73° (ENE) 18:00:35 437.475
RS-15 17 Dec 18:01:51 18:10:54 23° 346° (NNW) 18:19:47 29.354- 29.394
XW-2A 17 Dec 18:02:16 18:03:32 12° 66° (ENE) 18:04:47 145.665 - 145.685
KKS-1 17 Dec 18:06:25 18:10:29 37° 290° (WNW) 18:14:31 437.445
HO-68 17 Dec 18:09:28 18:16:39 86° 73° (ENE) 18:23:53 435.675
NUDT-PHONESAT 17 Dec 18:19:45 18:22:46 24° 265° (W) 18:25:49 437.300
LilacSat-2 17 Dec 18:22:04 18:24:21 15° 268° (W) 18:26:39 437.200
STRAND 1 17 Dec 18:22:47 18:25:44 15° 91° (E) 18:28:41 437.568
AO-73 17 Dec 18:23:13 18:25:39 15° 65° (ENE) 18:28:06 145.935
KAITUO 1B 17 Dec 18:30:19 18:32:53 18° 267° (W) 18:35:29 145.475/437.950
XW-2D 17 Dec 18:32:25 18:33:57 12° 269° (W) 18:35:30 145.860 - 145.880
PCSat 17 Dec 18:36:22 18:41:34 47° 304° (NW) 18:46:48 145.827
STARS 17 Dec 18:39:24 18:43:29 40° 289° (WNW) 18:47:32 437.465
CUTE-I 17 Dec 18:43:39 18:47:40 21° 267° (W) 18:51:42 437.470
O/OREOS (USA 219) 17 Dec 18:47:47 18:50:40 17° 260° (W) 18:53:32 437.305
BEESAT 3 17 Dec 18:49:06 18:52:55 46° 117° (ESE) 18:56:45 437.485
SEEDS 17 Dec 18:58:09 19:02:14 49° 261° (W) 19:06:22 437.485
